EWG2480 EDDS-EGPH

Flight info

Callsign EWG2480
Flight time N/A
Altitude 37000
Route OKIBA4H OKIBA N851 RIMKI Z99 LOHRE DCT MASEK/N0433F380 L604 RELBI L602 RKN L980 TENLI L602 SUPUR P1 GODOS M981 NATEB Y96 AGPED
Aircraft A319/M-SDE3FGHIRWY/LB1

Departure

Time 2026-05-01 14:17
Airport Stuttgart Airport (EDDS)

Arrival

Time N/A
Airport Edinburgh Airport (EGPH)
Time Latitude Longitude Altitude Speed Heading
2026-05-01 13:54 48.68885 9.19358 1315 ft 0 kts 344°
2026-05-01 14:01 48.68871 9.19365 1315 ft 4 kts 344°
2026-05-01 14:01 48.68845 9.19376 1315 ft 4 kts 344°
2026-05-01 14:01 48.68824 9.19383 1314 ft 4 kts
2026-05-01 14:01 48.68805 9.19366 1314 ft 4 kts 66°
2026-05-01 14:02 48.68799 9.19344 1314 ft 0 kts 74°
2026-05-01 14:04 48.68800 9.19348 1314 ft 2 kts 74°
2026-05-01 14:04 48.68806 9.19378 1313 ft 8 kts 74°
2026-05-01 14:05 48.68837 9.19542 1311 ft 16 kts 74°
2026-05-01 14:05 48.68871 9.19729 1307 ft 21 kts 74°
2026-05-01 14:05 48.68842 9.19900 1299 ft 16 kts 157°
2026-05-01 14:05 48.68759 9.19953 1293 ft 5 kts 158°
2026-05-01 14:06 48.68725 9.19970 1291 ft 0 kts 161°
2026-05-01 14:06 48.68696 9.19983 1290 ft 9 kts 163°
2026-05-01 14:06 48.68618 9.20038 1284 ft 16 kts 131°
2026-05-01 14:06 48.68605 9.20182 1283 ft 6 kts 73°
2026-05-01 14:07 48.68606 9.20185 1282 ft 0 kts 73°
2026-05-01 14:07 48.68633 9.20330 1278 ft 41 kts 74°
2026-05-01 14:08 48.68826 9.21346 1258 ft 18 kts 75°
2026-05-01 14:08 48.68869 9.21475 1257 ft 17 kts 20°
2026-05-01 14:08 48.68962 9.21457 1264 ft 3 kts 341°
2026-05-01 14:08 48.68967 9.21455 1255 ft 0 kts 341°
2026-05-01 14:12 48.68999 9.21440 1261 ft 12 kts 345°
2026-05-01 14:12 48.69083 9.21364 1262 ft 14 kts 287°
2026-05-01 14:12 48.69066 9.21228 1268 ft 13 kts 251°
2026-05-01 14:12 48.69037 9.21077 1269 ft 15 kts 254°
2026-05-01 14:13 48.69009 9.20926 1273 ft 15 kts 254°
2026-05-01 14:13 48.68990 9.20831 1275 ft 14 kts 254°
2026-05-01 14:13 48.68957 9.20656 1280 ft 12 kts 253°
2026-05-01 14:13 48.68926 9.20495 1284 ft 19 kts 255°
2026-05-01 14:14 48.68889 9.20301 1288 ft 19 kts 253°
2026-05-01 14:14 48.68853 9.20112 1293 ft 18 kts 253°
2026-05-01 14:14 48.68806 9.19972 1295 ft 12 kts 207°
2026-05-01 14:14 48.68726 9.19967 1291 ft 8 kts 169°
2026-05-01 14:15 48.68685 9.19985 1289 ft 0 kts 162°
2026-05-01 14:15 48.68685 9.19986 1289 ft 1 kts 162°
2026-05-01 14:15 48.68682 9.19987 1289 ft 0 kts 162°
2026-05-01 14:16 48.68656 9.19998 1287 ft 8 kts 163°
2026-05-01 14:16 48.68591 9.20066 1283 ft 14 kts 113°
2026-05-01 14:16 48.68609 9.20209 1280 ft 10 kts 73°
2026-05-01 14:16 48.68612 9.20222 1280 ft 5 kts 72°
2026-05-01 14:17 48.68683 9.20591 1272 ft 68 kts 73°
2026-05-01 14:17 48.68871 9.21587 1251 ft 128 kts 74°
2026-05-01 14:17 48.69157 9.23114 1427 ft 160 kts 75°
2026-05-01 14:17 48.69441 9.24721 2283 ft 156 kts 77°
2026-05-01 14:18 48.69737 9.26341 2948 ft 167 kts 75°
2026-05-01 14:18 48.70074 9.28146 3313 ft 191 kts 76°
2026-05-01 14:18 48.70460 9.30199 3746 ft 216 kts 76°
2026-05-01 14:18 48.70738 9.31675 4164 ft 232 kts 77°
2026-05-01 14:19 48.71372 9.35038 4978 ft 258 kts 77°
2026-05-01 14:19 48.71874 9.37684 5949 ft 265 kts 77°
2026-05-01 14:19 48.72392 9.40396 6941 ft 271 kts 77°
2026-05-01 14:19 48.72920 9.43157 7868 ft 276 kts 76°
2026-05-01 14:20 48.73458 9.45974 8851 ft 280 kts 76°
2026-05-01 14:20 48.75519 9.51043 10606 ft 304 kts 39°
2026-05-01 14:20 48.77487 9.52403 10988 ft 329 kts 13°
2026-05-01 14:21 48.79810 9.52465 11671 ft 340 kts 358°
2026-05-01 14:21 48.82060 9.52223 12489 ft 342 kts 357°
2026-05-01 14:21 48.84449 9.51944 13368 ft 345 kts 356°
2026-05-01 14:22 48.89266 9.51365 14960 ft 351 kts 358°
2026-05-01 14:22 48.91706 9.51076 15689 ft 353 kts 358°
2026-05-01 14:22 48.94172 9.50744 16401 ft 358 kts 353°
2026-05-01 14:22 48.96605 9.49824 17106 ft 364 kts 342°
2026-05-01 14:23 48.98835 9.48303 17772 ft 369 kts 335°
2026-05-01 14:23 49.01154 9.46591 18523 ft 372 kts 335°
2026-05-01 14:23 49.03495 9.44867 19165 ft 375 kts 336°
2026-05-01 14:23 49.05052 9.43723 19608 ft 376 kts 335°
2026-05-01 14:24 49.07159 9.42176 20196 ft 378 kts 336°
2026-05-01 14:24 49.09543 9.40429 20845 ft 381 kts 336°
2026-05-01 14:24 49.11939 9.38668 21471 ft 384 kts 336°
2026-05-01 14:24 49.14354 9.36887 22128 ft 386 kts 335°
2026-05-01 14:25 49.16700 9.35154 22729 ft 388 kts 335°
2026-05-01 14:25 49.19145 9.33356 23350 ft 391 kts 337°
2026-05-01 14:25 49.21715 9.31995 23928 ft 392 kts 347°
2026-05-01 14:25 49.24419 9.31364 24439 ft 392 kts 358°
2026-05-01 14:26 49.27157 9.31164 24942 ft 395 kts 358°
2026-05-01 14:26 49.32535 9.30768 25916 ft 399 kts 358°
2026-05-01 14:26 49.35322 9.30604 26406 ft 401 kts
2026-05-01 14:27 49.38114 9.30918 26858 ft 404 kts
2026-05-01 14:27 49.40917 9.31329 27350 ft 406 kts
2026-05-01 14:27 49.43721 9.31746 27829 ft 408 kts
2026-05-01 14:28 49.49412 9.32595 28784 ft 413 kts
2026-05-01 14:28 49.52236 9.33021 29232 ft 416 kts
2026-05-01 14:28 49.55098 9.33450 29669 ft 419 kts
2026-05-01 14:28 49.58007 9.33883 30153 ft 421 kts
2026-05-01 14:29 49.60939 9.34317 30545 ft 425 kts
2026-05-01 14:29 49.63889 9.34755 30912 ft 427 kts
2026-05-01 14:30 49.72825 9.36083 32036 ft 432 kts
2026-05-01 14:30 49.75800 9.36742 32529 ft 432 kts 12°
2026-05-01 14:30 49.78708 9.37846 33015 ft 430 kts 13°
2026-05-01 14:31 49.84502 9.40070 34036 ft 428 kts 13°
2026-05-01 14:31 49.87380 9.41174 34548 ft 426 kts 13°
2026-05-01 14:31 49.90254 9.42280 34964 ft 425 kts 13°
2026-05-01 14:31 49.93120 9.43387 35356 ft 425 kts 13°
2026-05-01 14:32 49.95986 9.44496 35778 ft 423 kts 13°
2026-05-01 14:32 49.98845 9.45601 36125 ft 424 kts 13°
2026-05-01 14:32 50.01706 9.46708 36524 ft 423 kts 13°
2026-05-01 14:32 50.04561 9.47817 36882 ft 423 kts 13°
2026-05-01 14:33 50.07440 9.48768 37211 ft 422 kts
2026-05-01 14:33 50.10361 9.49272 37320 ft 422 kts
2026-05-01 14:33 50.13277 9.49754 37336 ft 421 kts
2026-05-01 14:34 50.19088 9.50715 37331 ft 420 kts
2026-05-01 14:34 50.24850 9.51677 37335 ft 419 kts
2026-05-01 14:35 50.30677 9.52659 37338 ft 420 kts
2026-05-01 14:35 50.36486 9.53629 37332 ft 420 kts
2026-05-01 14:36 50.42299 9.54608 37332 ft 420 kts
2026-05-01 14:36 50.48114 9.55599 37335 ft 420 kts
2026-05-01 14:37 50.53937 9.56592 37330 ft 421 kts
2026-05-01 14:37 50.59762 9.57593 37329 ft 421 kts
2026-05-01 14:38 50.65548 9.58569 37331 ft 421 kts
2026-05-01 14:38 50.68460 9.58473 37330 ft 419 kts 351°
2026-05-01 14:38 50.71298 9.57448 37332 ft 417 kts 340°
2026-05-01 14:38 50.73935 9.55559 37327 ft 416 kts 329°
2026-05-01 14:39 50.76288 9.52913 37324 ft 416 kts 318°
2026-05-01 14:39 50.80117 9.46082 37309 ft 416 kts 309°
2026-05-01 14:40 50.83803 9.38982 37298 ft 418 kts 309°
2026-05-01 14:40 50.87481 9.31868 37304 ft 420 kts 309°
2026-05-01 14:41 50.91199 9.24678 37312 ft 420 kts 309°
2026-05-01 14:41 50.94905 9.17512 37316 ft 421 kts 309°
2026-05-01 14:42 50.98605 9.10326 37327 ft 420 kts 309°
2026-05-01 14:42 51.02288 9.03130 37333 ft 419 kts 309°
2026-05-01 14:43 51.05969 8.95914 37483 ft 421 kts 309°
2026-05-01 14:43 51.07785 8.92349 37837 ft 419 kts 309°
2026-05-01 14:43 51.09617 8.88754 38209 ft 418 kts 309°
2026-05-01 14:43 51.11476 8.85103 38329 ft 420 kts 309°
2026-05-01 14:44 51.13275 8.81549 38328 ft 418 kts 308°
2026-05-01 14:44 51.18319 8.70239 38326 ft 417 kts 304°
2026-05-01 14:45 51.23156 8.58726 38320 ft 417 kts 304°
2026-05-01 14:46 51.26435 8.51082 38308 ft 418 kts 304°
2026-05-01 14:46 51.31411 8.39580 38312 ft 420 kts 304°
2026-05-01 14:47 51.34694 8.31929 38313 ft 420 kts 304°
2026-05-01 14:48 51.39616 8.20352 38300 ft 422 kts 304°
2026-05-01 14:48 51.44542 8.08746 38290 ft 423 kts 304°
2026-05-01 14:49 51.51000 7.93445 38285 ft 423 kts 304°
2026-05-01 14:50 51.57551 7.77852 38283 ft 423 kts 303°
2026-05-01 14:51 51.62327 7.66427 38293 ft 421 kts 304°
2026-05-01 14:52 51.67129 7.54851 38290 ft 421 kts 303°
2026-05-01 14:53 51.71816 7.43529 38293 ft 420 kts 303°
2026-05-01 14:53 51.74808 7.36287 38284 ft 419 kts 303°
2026-05-01 14:54 51.77614 7.29467 38268 ft 420 kts 303°
2026-05-01 14:54 51.80609 7.22160 38261 ft 421 kts 303°
2026-05-01 14:55 51.83826 7.14302 38253 ft 421 kts 303°
2026-05-01 14:55 51.86644 7.07395 38260 ft 421 kts 303°
2026-05-01 14:56 51.89726 6.99820 38266 ft 420 kts 303°
2026-05-01 14:56 51.92703 6.92474 38266 ft 419 kts 302°
2026-05-01 14:57 51.95554 6.85421 38259 ft 419 kts 302°
2026-05-01 14:57 52.00252 6.73744 38252 ft 419 kts 302°
2026-05-01 14:58 52.03431 6.65824 38249 ft 419 kts 302°
2026-05-01 14:58 52.06506 6.58149 38243 ft 420 kts 302°
2026-05-01 14:59 52.09736 6.50049 38249 ft 420 kts 302°
2026-05-01 14:59 52.12800 6.42361 38242 ft 420 kts 302°
2026-05-01 15:00 52.17417 6.30761 38241 ft 422 kts 302°
2026-05-01 15:01 52.20585 6.22698 38246 ft 422 kts 301°
2026-05-01 15:01 52.23697 6.14753 38249 ft 421 kts 301°
2026-05-01 15:02 52.26846 6.06703 38254 ft 421 kts 302°
2026-05-01 15:02 52.29996 5.98660 38241 ft 422 kts 301°
2026-05-01 15:03 52.33111 5.90654 38234 ft 422 kts 301°
2026-05-01 15:03 52.36246 5.82589 38229 ft 423 kts 301°
2026-05-01 15:04 52.39396 5.74453 38222 ft 423 kts 301°
2026-05-01 15:04 52.42508 5.66399 38220 ft 424 kts 301°
2026-05-01 15:05 52.45602 5.58369 38234 ft 424 kts 301°
2026-05-01 15:05 52.48742 5.50174 38248 ft 424 kts 300°
2026-05-01 15:06 52.51772 5.42268 38245 ft 424 kts 299°
2026-05-01 15:06 52.54906 5.34034 38234 ft 425 kts 301°
2026-05-01 15:07 52.58008 5.25868 38228 ft 425 kts 300°
2026-05-01 15:07 52.61132 5.17600 38225 ft 426 kts 300°
2026-05-01 15:08 52.64247 5.09344 38227 ft 426 kts 300°
2026-05-01 15:08 52.67360 5.01098 38227 ft 426 kts 300°
2026-05-01 15:09 52.70442 4.92887 38223 ft 426 kts 300°
2026-05-01 15:09 52.73550 4.84555 38217 ft 427 kts 300°
2026-05-01 15:10 52.76654 4.76200 38220 ft 427 kts 300°
2026-05-01 15:10 52.81309 4.63640 38228 ft 427 kts 299°
2026-05-01 15:11 52.85954 4.51064 38230 ft 427 kts 299°
2026-05-01 15:12 52.89042 4.42672 38228 ft 427 kts 299°
2026-05-01 15:12 52.93660 4.30046 38236 ft 427 kts 299°
2026-05-01 15:14 53.01311 4.09028 38233 ft 427 kts 299°
2026-05-01 15:14 53.05890 3.96336 38227 ft 428 kts 298°
2026-05-01 15:15 53.11489 3.80755 38229 ft 428 kts 298°
2026-05-01 15:16 53.17581 3.63684 38236 ft 428 kts 298°
2026-05-01 15:18 53.25141 3.42304 38225 ft 429 kts 298°
2026-05-01 15:19 53.31613 3.25470 38205 ft 431 kts 300°
2026-05-01 15:19 53.36511 3.12816 38208 ft 431 kts 300°
2026-05-01 15:20 53.41333 3.00086 38204 ft 432 kts 299°
2026-05-01 15:21 53.44554 2.91580 38203 ft 432 kts 299°
2026-05-01 15:21 53.47780 2.83063 38198 ft 433 kts 299°
2026-05-01 15:22 53.52582 2.70296 38199 ft 433 kts 299°
2026-05-01 15:22 53.55787 2.61714 38200 ft 433 kts 299°
2026-05-01 15:23 53.58992 2.53123 38212 ft 433 kts 299°
2026-05-01 15:23 53.62201 2.44540 38205 ft 433 kts 298°
2026-05-01 15:24 53.65392 2.35924 38200 ft 433 kts 298°
2026-05-01 15:24 53.68580 2.27284 38194 ft 434 kts 298°
2026-05-01 15:25 53.71764 2.18646 38202 ft 434 kts 298°
2026-05-01 15:25 53.74939 2.09995 38199 ft 433 kts 298°
2026-05-01 15:26 53.78110 2.01324 38200 ft 433 kts 298°
2026-05-01 15:26 53.81262 1.92656 38191 ft 433 kts 298°
2026-05-01 15:27 53.84425 1.83956 38181 ft 433 kts 298°
2026-05-01 15:28 53.89134 1.70938 38187 ft 434 kts 298°
2026-05-01 15:28 53.92277 1.62208 38184 ft 434 kts 298°
2026-05-01 15:29 53.96983 1.49067 38194 ft 434 kts 297°
2026-05-01 15:30 54.03233 1.31511 38184 ft 434 kts 297°
2026-05-01 15:31 54.12568 1.05108 38189 ft 434 kts 297°
2026-05-01 15:32 54.18723 0.87480 38166 ft 434 kts 297°
2026-05-01 15:34 54.27962 0.60833 38153 ft 434 kts 296°